Regional Weather Roundup
Issued by NWS Northern Indiana

Home | Current Version | Previous Version | Text Only | Print | Product List | Glossary On
Versions: 1 2 3 4 5 6 7 8 9 10 11 12 13 14 15 16 17 18 19 20 21 22 23 24 25 26 27 28 29 30 31 32 33 34 35 36 37 38 39 40 41 42 43 44 45 46 47 48 49 50
000
ASUS43 KIWX 300300
RWRIWX

KIWX WEATHER ROUNDUP
NATIONAL WEATHER SERVICE NORTHERN INDIANA
1100 PM EDT MON AUG 29 2016

NOTE: "FAIR" INDICATES FEW OR NO CLOUDS BELOW 12,000 FEET WITH NO
SIGNIFICANT WEATHER AND/OR OBSTRUCTIONS TO VISIBILITY.

* THESE STATIONS ARE NOT UNDER NWS QUALITY CONTROL. THEY ALSO MAY NOT
  REPORT WEATHER SUCH AS PRECIPITATION OR FOG.

INZ001>027-300400-
NORTHERN INDIANA

CITY           SKY/WX    TMP DP  RH WIND       PRES   REMARKS
GARY*          MOCLDY    77  75  94 CALM      30.17
KNOX*          PTCLDY    73  55  53 E3        30.17F
SOUTH BEND     CLEAR     74  71  91 CALM      30.18F
GOSHEN         CLEAR     73  69  87 CALM      30.19S
MONTICELLO*    CLEAR     76  69  79 CALM      30.17S
ANGOLA*        CLEAR     72  64  78 SE5       30.21S
FORT WAYNE     PTCLDY    73  68  84 E7        30.20S

$$
INZ028>050-300400-
CENTRAL INDIANA

CITY           SKY/WX    TMP DP  RH WIND       PRES   REMARKS
LAFAYETTE      CLEAR     75  73  93 E3        30.16R
KOKOMO*        CLEAR     73  72  94 E3        30.18S
MUNCIE*        CLEAR     74  70  87 E3        30.19S
INDIANAPOLIS   CLEAR     80  70  71 E7        30.16S

$$
MIZ043>046-050>051-056>058-064>065-071>073-077>080-300400-
SOUTHWEST LOWER MICHIGAN

CITY           SKY/WX    TMP DP  RH WIND       PRES   REMARKS
BATTLE CREEK   MOCLDY    74  69  85 SE5       30.20F
BENTON HARBOR  CLEAR     73  70  90 CALM      30.17F
COLDWATER*     PTCLDY    72  69  90 SE6       30.20F
HILLSDALE*     PTCLDY    70  67  90 SE5       30.21F
HOLLAND        CLOUDY    72  69  90 CALM      30.18F
GRAND RAPIDS   MOCLDY    73  68  84 N3        30.19F
KALAMAZOO      PTCLDY    75  68  78 SE3       30.19F
STURGIS*       CLEAR     73  69  86 SE7       30.19F
THREE RIVERS*  FAIR      75  71  86 SE3       30.19F

$$
OHZ001>008-015>018-024>025-300400-
NORTHWEST OHIO

CITY           SKY/WX    TMP DP  RH WIND       PRES   REMARKS
DEFIANCE       CLEAR     72  65  78 E3        30.21S
FINDLAY        CLEAR     71  61  70 E7        30.20F
TOLEDO EXPRESS CLEAR     65  65 100 E3        30.20F
TOLEDO METCALF CLEAR     69  67  93 E3        30.21F
LIMA           CLEAR     68  66  93 E6        30.21F

$$
AND FOR LAKE MICHIGAN COASTAL AND OPEN LAKE BUOY OBSERVATIONS

STATION/POSITION TEMP    WIND        PRES    VSBY  WAVE
                 AIR SEA DIR/SP/G                  HT/PER
                 (F)     (DEG/KT/KT) (MB)    (MI)  (FT/S)
CALUMET HARBOR    74                 1021.1F
MICHIGAN CITY     76      40/  3/  4   N/A
BURNS HARBOR      72      80/  8/ 10 1022.0S
SAINT JOSEPH      76      CALM  /  3 1022.0F
SOUTH LAKE BUOY   76 77   80/  6/  6 1021.1          0
4 MI NW BRIDGMAN  76 76   60/  6/  6 1021.4F         1
MICHIGAN CITY     75 76   80/  6/  8   N/A           1/ 2

$$
&&




USA.gov is the U.S. government's official web portal to all federal, state and local government web resources and services.